Preview of NWS' New Version of Forecast
This preview is not operational and should not be used for support decisions.

Regional Weather Roundup (RWR)

Issued by National Weather Service (NWS)

                            
000
ASUS42 KTBW 211018
RWRFL 
FLORIDA REGIONAL WEATHER ROUNDUP
NATIONAL WEATHER SERVICE TAMPA BAY RUSKIN FL
600 AM EDT SUN JUL 21 2019

NOTE: "FAIR" INDICATES FEW OR NO CLOUDS BELOW 12,000 FEET WITH NO
SIGNIFICANT WEATHER AND/OR OBSTRUCTIONS TO VISIBILITY.

FLZ001>010-012>015-112-114-115-211100-
PANHANDLE FLORIDA
  
CITY           SKY/WX    TMP DP  RH WIND       PRES   REMARKS
PENSACOLA      CLOUDY    76  75  97 CALM      30.03R                  
PENSACOLA NAS  CLOUDY    75  74  96 CALM      30.02R                  
MILTON NAS     MOCLDY    71  71 100 E3          N/A                   
CRESTVIEW      FAIR      70  68  93 CALM      30.05R                  
DUKE FIELD     FAIR      70  70 100 CALM      30.04R                  
VALPARAISO     FAIR      73  72  96 CALM      30.03R                  
MARY ESTHER    PTCLDY    72  70  94 CALM      30.02R                  
TRI COUNTY     FAIR      70  70 100 CALM      30.06R                  
PANAMA CITY    FAIR      73  70  90 CALM      30.03R                  
TYNDALL AFB    FAIR      75  72  91 CALM      30.03R                  
APALACHICOLA   FAIR      73  71  93 N3        30.02R                  

STATION/POSITION SKY/WX   TEMP    WIND        PRES    WAVE   SWELL
                          AIR SEA DIR/SP/G            HT/PER HT/PER
                          (F)     (DEG/KT/KT) (MB)    (FT/S) (FT/S)
30.1N   87.6W              83 86  210/  4/  8 1016.6R   1/ 3
29.2N   88.2W              83 84  180/  8/  8 1016.3
28.8N   86.0W                 86  140/  8/ 10 1016.7R   1/ 4   2/ 4
PANAMA CITY BEAC           78 85   40/  2/  4 1017.1
TOWER C                    82     150/  5/  6 1017.2R
28.5N   84.5W              84     120/ 10/ 12 1017.2R   1/ 3

$$
FLZ011-016>038-118-127-128-134-139-239-211100-
NORTH FLORIDA
  
CITY           SKY/WX    TMP DP  RH WIND       PRES   REMARKS
MARIANNA       FAIR      72  72 100 SW3       30.04R                  
TALLAHASSEE    FAIR      74  73  97 CALM      30.05R                  
PERRY          FAIR      73  72  97 CALM      30.05R                  
LIVE OAK       CLEAR     72  72 100 CALM      30.05R FOG              
CROSS CITY     FAIR      73  72  99 CALM      30.05R                  
LAKE CITY      FAIR      70  70 100 CALM      30.07R                  
GAINESVILLE    FAIR      70  69  97 NE5       30.08R                  
WILLISTON      FAIR      71  71  99 S5        30.06R                  
PALATKA        CLOUDY    70  68  94 CALM      30.08R                  
MAYPORT NAS    FAIR      76  73  91 S6        30.06R                  
JACKSONVILLE   FAIR      71  70  96 S3        30.05R                  
JAX NAS        FAIR      77  72  84 CALM      30.07R                  
JAX CECIL      FAIR      70  68  94 CALM      30.06R FOG              
FERNANDINA BEA FAIR      73  72  97 CALM      30.05R                  
ST AUGUSTINE   FAIR      74  71  91 CALM      30.08R                  
PALM COAST     CLEAR     72  72 100 CALM      30.07R                  

STATION/POSITION SKY/WX   TEMP    WIND        PRES    WAVE   SWELL
                          AIR SEA DIR/SP/G            HT/PER HT/PER
                          (F)     (DEG/KT/KT) (MB)    (FT/S) (FT/S)
SHELL POINT                77 80  350/  4/  6 1016.2
KEATON BEACH               74     100/  4/  5 1017.5R
CEDAR KEY                  80     120/  8/ 10 1017.6R
FERNANDINA                 78 86  140/  3/  3 1018.1
30.7N   81.3W                 83                N/A     1/ 9
MAYPORT                    75 83  140/  3/  4 1017.9
31.4N   80.9W              82 83  200/  8/  8 1017.3R   2/ 8   2/ 8
ST AUGUSTINE               77 77  170/  2/  2 1018.3R

$$
FLZ040-043>046-052-053-057-058-063-144-211100-
INTERIOR CENTRAL FLORIDA
  
CITY           SKY/WX    TMP DP  RH WIND       PRES   REMARKS
OCALA          FAIR      72  71  97 CALM      30.07R                  
LEESBURG       FAIR      79  75  87 SE5       30.06R                  
SANFORD        FAIR      77  75  93 NE3       30.06R                  
ORLANDO EXEC   FAIR      77  74  90 SE3       30.05S                  
ORLANDO INTL   FAIR      77  75  93 E5        30.05S                  
KISSIMMEE      FAIR      78  75  90 CALM      30.07R                  
WINTER HAVEN   FAIR      77  74  90 NE3       30.06S                  
LAKELAND       CLEAR     75  73  94 CALM      30.06R                  
BARTOW         FAIR      75  73  94 CALM      30.04S                  
SEBRING        FAIR      74  73  96 CALM      30.04S                  

$$
FLZ041-047-054-059-064-141-147-211100-
EAST CENTRAL FLORIDA
  
CITY           SKY/WX    TMP DP  RH WIND       PRES   REMARKS
DAYTONA BEACH  FAIR      76  76 100 CALM      30.06R                  
DELAND         FAIR      73  72  94 CALM      30.06R                  
JFK SPACE CTR  CLEAR     74  65  74 CALM      30.05R                  
CAPE CANAVERAL CLEAR     75  56  51 CALM      30.04R HAZE             
PATRICK AFB    FAIR      80  80 100 CALM      30.05R                  
MELBOURNE      FAIR      78  75  90 CALM      30.05R                  
VERO BEACH     FAIR      74  73  97 CALM      30.04S                  
FT PIERCE      FAIR      75  71  87 CALM      30.04S                  
STUART         FAIR      77  72  83 CALM      30.05S                  

STATION/POSITION SKY/WX   TEMP    WIND        PRES    WAVE   SWELL
                          AIR SEA DIR/SP/G            HT/PER HT/PER
                          (F)     (DEG/KT/KT) (MB)    (FT/S) (FT/S)
28.5N   80.2W              83 83  150/  8/  8 1017.5R   2/ 8   2/ 8
28.9N   78.5W              84 86  120/  8/ 10   N/A     2/ 8   2/ 8
TRIDENT PIER               81 84  170/  4/  6 1018.8
28.4N   80.5W                 82                N/A     1/ 7
27.5N   80.2W                 83                N/A     1/ 8

$$
FLZ050-056-061-142-242-148-248-149-249-151-251-155-255-
160-260-211100-
WEST CENTRAL FLORIDA
  
CITY           SKY/WX    TMP DP  RH WIND       PRES   REMARKS
CRYSTAL RIVER  FAIR      72  72 100 CALM      30.06R                  
INVERNESS      FAIR      72  72 100 CALM      30.06S                  
BROOKSVILLE    FAIR      75  73  93 SE5       30.06S                  
CLEARWATER AIR FAIR      75  72  88 CALM      30.05R                  
ST PETE CLEARW FAIR      76  73  91 E5        30.04S                  
TAMPA INTL     FAIR      76  72  87 NE3       30.05S                  
TAMPA EXEC     FAIR      72  72 100 CALM      30.06R                  
PLANT CITY     FAIR     N/A N/A N/A MISG      30.07S                  
MACDILL AFB    FAIR      76  73  91 NE5       30.04S                  
PETER O KNIGHT CLOUDY   N/A N/A N/A NE3       30.05S                  
ST PETERSBURG  FAIR      80  74  81 SE8       30.02S                  
SARASOTA       FAIR      75  73  93 E3        30.02S                  
VENICE         FAIR      75  73  94 NE6       30.03S                  

STATION/POSITION SKY/WX   TEMP    WIND        PRES    WAVE   SWELL
                          AIR SEA DIR/SP/G            HT/PER HT/PER
                          (F)     (DEG/KT/KT) (MB)    (FT/S) (FT/S)
27.3N   84.2W                 86                N/A     2/ 4
CLEARWATER BEACH           79 88   90/  5/  8 1017.5
MIDDLE TAMPA BAY           78     120/  9/ 11 1017.2
VENICE                     75 86   60/  6/  7 1016.7S

$$
FLZ066-069-070-075>078-162-262-165-265-211100-
SOUTHWEST FLORIDA AND KEYS
  
CITY           SKY/WX    TMP DP  RH WIND       PRES   REMARKS
PUNTA GORDA    FAIR      74  73  97 N5        30.05R                  
FT MYERS       FAIR      74  72  93 CALM      30.01S                  
SOUTHWEST INTL FAIR      75  72  90 CALM      30.02S                  
NAPLES         CLEAR     32  32 100 CALM      30.01                   
MARCO ISLAND   FAIR      76  74  93 MISG      30.03R                  
IMMOKALEE      FAIR      73  73 100 E3        30.01R                  
MARATHON       FAIR      83  72  69 E5        30.01S                  
KEY WEST NAS   FAIR      84  74  71 SE7       30.01R                  
KEY WEST INTL  FAIR      83  73  72 SE8       30.01R                  

STATION/POSITION SKY/WX   TEMP    WIND        PRES    WAVE   SWELL
                          AIR SEA DIR/SP/G            HT/PER HT/PER
                          (F)     (DEG/KT/KT) (MB)    (FT/S) (FT/S)
NAPLES                     77 86              1016.3
26.0N   85.6W              84 85  130/  8/ 10 1015.5F   2/ 5   2/ 5
DRY TORTUGAS               83     120/  8/  9 1015.9R
SAND KEY                   83     150/ 10/ 12 1015.0R
SOMBRERO KEY               84      90/  9/ 11 1016.6
LONG KEY                   83                 1015.8

$$
FLZ067-068-071>074-168-172>174-211100-
SOUTHEAST FLORIDA 
  
CITY           SKY/WX    TMP DP  RH WIND       PRES   REMARKS
W PALM BEACH   FAIR      78  73  84 CALM      30.04R                  
FT LAUDER-EXEC FAIR      75  73  93 CALM      30.03R                  
FT LAUDERDALE  FAIR      78  73  84 NW3       30.02R                  
POMPANO BEACH  FAIR      77  74  90 W3        30.03R                  
PEMBROKE PINES FAIR      79  75  87 N3        30.04R                  
OPA LOCKA      FAIR      79  74  84 NW6       30.03R                  
MIAMI          MOCLDY    80  72  76 CALM      30.03R                  
WEST KENDALL   FAIR      78  74  87 S3        30.03R                  
HOMESTEAD      MOCLDY    76  74  93 CALM      30.02R                  

STATION/POSITION SKY/WX   TEMP    WIND        PRES    WAVE   SWELL
                          AIR SEA DIR/SP/G            HT/PER HT/PER
                          (F)     (DEG/KT/KT) (MB)    (FT/S) (FT/S)
PORT EVERGLADES            81     220/  2/  3 1016.3R
VIRGINIA KEY               82 88     CALM     1016.1
LAKE WORTH                 81 84  310/  2/  4 1018.0
FOWEY ROCKS                82 85  130/  7/  8 1017.3R
SETTLEMENT POINT           82     120/  4/  5 1017.4R

$$